Location: Ergnies
(50.0854°N, 2.0375°E)
Time: 09:54:02
(UTC+00:00)

Nadezhda 3 Rocket - Pass Details

Date: 14 January 2026
Orbit: 956 x 997 km, 82.9° (Epoch: 17 February)

Event Time Altitude Azimuth Distance (km) Brightness Sun altitude
Rises 05:30:18 0° 351° (N) 3,670 6.8 -21.0°
Reaches altitude 10° 05:32:49 10° 352° (N) 2,724 6.2 -20.6°
Maximum altitude 05:39:05 78° 80° (E) 1,004 4.1 -19.6°
Drops below altitude 10° 05:45:21 10° 167° (SSE) 2,735 6.6 -18.6°
Sets 05:47:53 0° 168° (SSE) 3,684 7.3 -18.2°
